AO-07 1 07530U 74089B 26071.97911914 -.00000024 00000-0 14250-3 0 9992 2 07530 101.9967 84.2044 0011950 315.7513 71.8532 12.53696392348460 UO-11 1 14781U 84021B 26071.82885626 .00001772 00000-0 18702-3 0 9995 2 14781 97.7946 38.5566 0008619 134.6539 225.5383 14.90518657242779 AO-27 1 22825U 93061C 26071.71380983 .00000133 00000-0 67474-4 0 9992 2 22825 98.6976 139.1260 0008809 30.7871 329.3826 14.30914229693207 FO-29 1 24278U 96046B 26071.60397799 .00000008 00000-0 45667-4 0 9994 2 24278 98.5377 293.6293 0349702 347.2088 12.0349 13.53268870460108 GO-32 1 25397U 98043D 26071.54984197 .00000125 00000-0 73993-4 0 9996 2 25397 99.0029 61.8925 0002134 115.0247 245.1152 14.24407055437576 ISS 1 25544U 98067A 26071.86901803 .00011348 00000-0 21655-3 0 9990 2 25544 51.6324 56.6367 0007924 186.1410 173.9482 15.48614629556825 NO-44 1 26931U 01043C 26071.63164662 .00000164 00000-0 92253-4 0 9995 2 26931 67.0501 134.0045 0007010 265.0968 94.9334 14.31913920276621 SO-50 1 27607U 02058C 26071.98961994 .00002161 00000-0 27188-3 0 9997 2 27607 64.5526 66.5662 0075293 280.0937 79.1681 14.82799323250195 CO-55 1 27844U 03031E 26072.00612833 .00000419 00000-0 20026-3 0 9999 2 27844 98.6777 81.7637 0010730 103.8440 256.3934 14.24269354177988 RS-22 1 27939U 03042A 26071.99974090 .00001473 00000-0 23618-3 0 9990 2 27939 98.3446 253.6528 0010624 208.9286 312.4893 14.73265528201382 CO-65 1 32785U 08021C 26071.96404985 .00007964 00000-0 51530-3 0 9990 2 32785 97.8202 51.4943 0009238 7.5944 352.5422 15.08423347970682 CO-66 1 32791U 08021J 26071.60401122 .00022620 00000-0 79898-3 0 9991 2 32791 97.7518 65.1556 0000957 346.4462 13.6752 15.29223276972516 RS-30 1 32953U 08025A 26072.00747316 .00000029 00000-0 13780-3 0 9995 2 32953 82.5007 55.2582 0019648 157.9973 202.1955 12.43176079807742 SRMSAT 1 37841U 11058D 26071.88014721 .00000480 00000-0 11685-3 0 9991 2 37841 19.9720 282.3949 0011727 224.2053 250.8798 14.11549135744194 ZACUBE-1 1 39417U 13066B 26071.46451722 .00004995 00000-0 39525-3 0 9991 2 39417 97.8162 33.3027 0042859 210.7358 149.1354 15.00356925666226 Delfi-N3xt 1 39428U 13066N 26071.76196143 .00006755 00000-0 60773-3 0 9994 2 39428 97.8336 352.2618 0076503 166.2323 194.1007 14.93720301660223 GOMX-1 1 39430U 13066Q 26071.95784951 .00002169 00000-0 33189-3 0 9994 2 39430 97.6571 278.4593 0130067 27.0842 333.7073 14.69113007655783 LO-74 1 39440U 13066AA 26071.84762697 .00006457 00000-0 60655-3 0 9998 2 39440 97.8805 20.5253 0058254 348.4702 11.5178 14.92998447662619 AO-73 1 39444U 13066AE 26071.29535176 .00008749 00000-0 56408-3 0 9998 2 39444 97.8189 40.8783 0037634 169.9501 190.2488 15.07963577665056 DTUSAT-2 1 40030U 14033W 26071.50212492 .00008952 00000-0 50229-3 0 9994 2 40030 98.0854 63.2081 0007409 190.8975 169.2095 15.13593853638059 LILACSAT-2 1 40908U 15049K 26072.00530733 .00019413 00000-0 37060-3 0 9995 2 40908 97.4807 105.3453 0005912 230.1829 129.8901 15.48159742580853 Horyu-4 1 41340U 16012D 26071.97825601 .00095894 00000-0 98254-3 0 9992 2 41340 30.9919 45.0013 0003712 186.7579 173.3024 15.63547488555628 Lapan A3 1 41603U 16040E 26071.96346130 .00004793 00000-0 15528-3 0 9990 2 41603 97.1486 71.3263 0010630 11.8151 348.3339 15.32419569540074 CAS-2T 1 41847U 16066G 26071.75484932 .00001557 00000-0 22572-3 0 9990 2 41847 98.3881 148.5710 0343561 62.2214 301.3364 14.44480000490871 TechnoSat 1 42829U 17042E 26071.88714175 .00003831 00000-0 27808-3 0 9999 2 42829 97.4149 233.3152 0019279 65.3521 294.9711 15.04313146472228 AO-91 1 43017U 17073E 26071.57536950 .00014489 00000-0 65446-3 0 9993 2 43017 97.4859 300.8129 0154357 301.9271 56.7024 15.10950627450795 S-Net D 1 43186U 18014G 26071.71140146 .00006116 00000-0 32463-3 0 9991 2 43186 97.5429 337.1376 0008531 5.6012 354.5314 15.15672412444147 S-Net B 1 43187U 18014H 26071.72101139 .00006094 00000-0 32370-3 0 9994 2 43187 97.5437 337.1302 0009029 0.6885 359.4358 15.15645039444149 S-Net A 1 43188U 18014J 26071.97480763 .00006188 00000-0 32831-3 0 9991 2 43188 97.5446 337.5738 0008865 0.3740 359.7497 15.15682802444181 S-Net C 1 43189U 18014K 26071.72436994 .00006567 00000-0 34851-3 0 9997 2 43189 97.5465 337.3846 0010005 352.4388 7.6691 15.15639147442692 Ten-Koh 1 43677U 18084G 26071.97182449 .00003051 00000-0 23456-3 0 9990 2 43677 98.0797 260.2965 0011941 83.2048 277.0534 15.02485146401717 PO-101 1 43678U 18084H 26071.99099230 .00005079 00000-0 41314-3 0 9993 2 43678 98.1041 264.1630 0012149 116.9049 243.3416 14.99984619401796 QO-100 1 43700U 18090A 26071.79085058 .00000144 00000-0 00000-0 0 9999 2 43700 0.0173 145.4269 0001102 201.7102 133.8009 1.00271326 26717 MinXSS-2 1 43758U 18099A 26071.76951076 .00032882 00000-0 80798-3 0 9999 2 43758 97.4622 145.6632 0007694 246.7761 113.2675 15.40561796399252 AO-95 1 43770U 18099N 26071.72824332 .00012969 00000-0 52952-3 0 9998 2 43770 97.4509 132.4339 0008110 335.2955 24.7893 15.24502263398513 SNUSat 2 1 43782U 18099AA 26071.69465603 .00010005 00000-0 46379-3 0 9994 2 43782 97.4194 126.6119 0009000 272.5623 87.4582 15.20235345398365 SnugLite 1 43784U 18099AC 26071.95403374 .00013906 00000-0 56071-3 0 9995 2 43784 97.4005 127.2773 0001401 254.7936 105.3147 15.24933386398649 ITASat 1 1 43786U 18099AE 26071.67550692 .00008290 00000-0 41330-3 0 9994 2 43786 97.4162 125.1435 0011941 335.6158 24.4509 15.17731810398263 EAGLET 1 1 43790U 18099AJ 26071.66459385 .00004863 00000-0 28552-3 0 9998 2 43790 97.4369 123.8827 0010135 326.4039 33.6548 15.12142265397749 ESEO 1 43792U 18099AL 26071.64935222 .00002410 00000-0 17884-3 0 9999 2 43792 97.4115 113.1299 0010687 306.9980 53.0268 15.03930972397290 JO-97 1 43803U 18099AX 26071.69409322 .00018439 00000-0 62819-3 0 9990 2 43803 97.4251 134.3706 0004884 243.5412 116.5328 15.30427657398856 Suomi 100 1 43804U 18099AY 26071.69897642 .00014189 00000-0 55204-3 0 9995 2 43804 97.4315 132.5594 0009010 258.1624 101.8604 15.26090313398692 ISAT 1 43879U 18111D 26071.75541975 .00060893 00000-0 10246-2 0 9993 2 43879 97.5899 0.6715 0002219 310.1451 49.9606 15.51529404396152 UWE-4 1 43880U 18111E 26071.72879685 .00032422 00000-0 80616-3 0 9990 2 43880 97.5847 356.1269 0006906 327.7228 32.3594 15.40211697395907 Sparrow 1 43881U 18111F 26071.76477893 .00074740 00000-0 10935-2 0 9995 2 43881 97.6101 5.0937 0003431 35.1165 325.0314 15.55347642396307 Prox-1 1 44339U 19036A 26071.98611179 .00014572 00000-0 15131-2 0 9992 2 44339 23.9962 35.6803 0006094 0.6379 359.4127 14.88153951359110 Taurus 1 1 44530U 19059C 26071.95954414 .00009343 00000-0 15336-2 0 9996 2 44530 98.6307 230.9489 0008506 247.3780 112.6525 14.70876665344492 TO-108 1 44881U 19093C 26071.98437681 .00000713 00000-0 86831-4 0 9990 2 44881 97.7604 146.5441 0014770 47.8632 312.3836 14.86349569337121 RS-44 1 44909U 19096E 26071.99984865 .00000038 00000-0 10696-3 0 9991 2 44909 82.5208 43.6140 0217796 9.5953 350.9206 12.79747534290043 SALSAT 1 46495U 20068K 26071.94691407 .00010457 00000-0 38231-3 0 9997 2 46495 97.8863 69.2667 0008099 282.5650 77.4683 15.28257479300650 CSS (TIANHE-1) 1 48274U 21035A 26071.65904515 .00026654 00000-0 31305-3 0 9995 2 48274 41.4661 190.0926 0006713 290.2953 69.7164 15.60827652278072 CUTE 1 49263U 21088D 26071.74482363 .00051439 00000-0 48194-3 0 9997 2 49263 97.4223 164.1182 0003184 300.1336 59.9609 15.67071157247357 TeikyoSat 4 1 49396U 21102B 26071.99061402 .00002130 00000-0 13797-3 0 9990 2 49396 97.3791 105.1826 0010452 263.3679 96.6361 15.09134290238211 Z-Sat 1 49399U 21102E 26072.01574977 .00004256 00000-0 21526-3 0 9993 2 49399 97.3463 110.2510 0015699 218.0752 141.9373 15.17459590238853 KOSEN 1 1 49402U 21102H 26071.69267066 .00008959 00000-0 35675-3 0 9993 2 49402 97.3333 115.7576 0014135 181.9262 178.1925 15.25377967239306 HO-113 1 50466U 21131B 26071.97522332 .00000495 00000-0 16700-3 0 9993 2 50466 98.4951 164.9110 0004753 41.3264 318.8283 14.41255588221258 SNUGLITE 2 1 52899U 22065F 26071.88366128 .00001464 00000-0 28765-3 0 9992 2 52899 98.2037 216.9758 0006741 334.0593 26.0271 14.64140264196902 UmKA 1 (RS40S) 1 57172U 23091G 26071.99622529 .00007147 00000-0 33746-3 0 9992 2 57172 97.5174 131.0891 0014684 95.7692 264.5217 15.19651140149397 CubeBel-2 (EU11S) 1 57175U 23091K 26071.98351610 .00014245 00000-0 54212-3 0 9992 2 57175 97.5169 134.4593 0011811 96.4513 263.8070 15.26797863149614 RS-38S 1 57189U 23091Z 26071.96205809 .00019081 00000-0 60178-3 0 9994 2 57189 97.5192 139.7044 0008611 62.4685 297.7431 15.32885450149930 SONATE-2 1 59112U 24043Q 26071.81970835 .00040320 00000-0 67775-3 0 9992 2 59112 97.5393 216.8998 0007908 193.1784 166.9263 15.51620954112911 GRBBeta 1 60237U 24128C 26071.76177804 .00006062 00000-0 41798-3 0 9997 2 60237 61.9902 194.3740 0051226 114.6400 246.0041 15.05837047 91745 Curium One 1 60242U 24128H 26071.86368048 .00010997 00000-0 64869-3 0 9992 2 60242 61.9790 186.5309 0050736 111.2674 249.3850 15.10929182 91899 ROBUSTA-3A 1 60243U 24128J 26071.90912117 .00010068 00000-0 60753-3 0 9997 2 60243 61.9865 188.3275 0051499 108.8420 251.8270 15.10152990 91870 CatSat 1 60246U 24125J 26071.65987010 .00046036 00000-0 83578-3 0 9997 2 60246 97.2210 283.5557 0027762 176.8908 183.2522 15.49004515 92401 HYPERVIEW-1G (RS66S) 1 61772U 24199AP 26071.96752646 .00071635 00000-0 93398-3 0 9996 2 61772 97.3083 308.1257 0006251 267.7121 92.3420 15.58458288119613 AO-123 1 61781U 24199AY 26071.94258951 .00010051 00000-0 30581-3 0 9994 2 61781 97.3155 301.4982 0012606 297.3853 62.6107 15.34135298119165 JINJUSat 1B 1 63210U 25052A 26071.67159862 .00019529 00000-0 66725-3 0 9991 2 63210 97.4115 328.4626 0005433 76.5028 283.6818 15.30319741 55320 NUSHSAT 1 1 63211U 25052B 26071.65159157 .00022759 00000-0 73628-3 0 9996 2 63211 97.4082 328.7301 0005546 74.7656 285.4199 15.32052661 55340 TEVEL2-4 1 63213U 25052D 26071.70069661 .00021009 00000-0 70127-3 0 9992 2 63213 97.4016 328.1232 0004792 87.6329 272.5460 15.31063663 55338 TEVEL2-5 1 63214U 25052E 26071.64652685 .00020612 00000-0 69080-3 0 9995 2 63214 97.4014 328.0409 0004756 90.1067 270.0719 15.30936720 55321 TEVEL2-6 1 63215U 25052F 26071.65643196 .00021722 00000-0 72864-3 0 9991 2 63215 97.4016 328.0367 0004859 90.3008 269.8790 15.30896934 55325 TEVEL2-1 1 63217U 25052H 26071.65549193 .00020565 00000-0 69915-3 0 9992 2 63217 97.3990 327.7649 0004828 99.2965 260.8822 15.30473039 55315 TEVEL2-3 1 63218U 25052J 26071.65300071 .00020987 00000-0 71257-3 0 9993 2 63218 97.3991 327.7743 0004909 99.3774 260.8023 15.30510578 55314 TEVEL2-2 1 63219U 25052K 26071.65614720 .00020729 00000-0 70464-3 0 9996 2 63219 97.3989 327.7668 0004811 100.3144 259.8639 15.30475266 55319 TEVEL2-9 1 63237U 25052AD 26071.64787713 .00019147 00000-0 68604-3 0 9993 2 63237 97.4057 327.3223 0008172 115.8360 244.3724 15.28754273 55267 TEVEL2-7 1 63238U 25052AE 26071.93445953 .00018169 00000-0 65537-3 0 9998 2 63238 97.4055 327.5590 0008315 115.4253 244.7848 15.28543909 55309 TEVEL2-8 1 63239U 25052AF 26071.67966764 .00018175 00000-0 65622-3 0 9990 2 63239 97.4055 327.2862 0008275 116.8914 243.3173 15.28512652 55265 HYDRA-W 1 63490U 25052BL 26071.64832811 .00219427 00000-0 22296-2 0 9993 2 63490 97.3931 332.9453 0009160 103.2079 257.0203 15.64435748 55650 HADES-ICM (SO-125) 1 63492U 25052BN 26071.65340648 .00144463 00000-0 19096-2 0 9999 2 63492 97.3940 332.2098 0009178 105.5033 254.7237 15.57805361 55604 Ten-Koh2 1 66174U 25241A 26071.96616758 .00010857 00000-0 47039-3 0 9999 2 66174 51.6351 57.2626 0005807 182.7900 177.3045 15.22870559 21455 SPIRONE 1 66657U 25274H 26071.76687658 .00003270 00000-0 31886-3 0 9990 2 66657 97.7438 2.4929 0011755 343.6979 16.3861 14.93096073 15830 K-HERO 1 66660U 25274L 26071.73239371 .00002955 00000-0 28538-3 0 9995 2 66660 97.7439 2.5467 0013696 346.5021 13.5831 14.93545728 15831 SNUGLITE-III DURI 1 66661U 25274M 26071.85805561 .00002728 00000-0 26318-3 0 9991 2 66661 97.7438 2.6857 0014388 346.4835 13.5998 14.93632144 15851 SilverSat 1 66909U 98067XV 26071.18756588 .00230471 00000-0 15879-2 0 9993 2 66909 51.6249 52.0679 0005428 93.6368 266.5252 15.73352402 15581 SAKHACUBE-CHOLBON 1 67290U 25313AU 26071.96809320 .00011873 00000-0 50730-3 0 9999 2 67290 97.4002 148.3125 0008828 341.9522 18.1400 15.22981116 11321 RS95S (QMR-KWT-2) 1 67291U 25313AV 26071.95480824 .00016500 00000-0 69075-3 0 9997 2 67291 97.4000 148.3294 0008461 340.0865 20.0041 15.23599698 11324 IO-86 1 40931U 25360.30710720 .00000000 00000-0 12800-3 0 00 2 40931 6.0006 332.5373 0012733 338.8432 8.1437 14.79075515 01